< < Back
Terminal Aerodrome Forecast


Current Version              Previous Versions:   1  2  3  4  5  6  7  8  9  

Terminal Aerodrome Forecast

348
FTUS42 KGSP 152300
TAFGSP
TAF
KGSP 152320Z 1600/1624 34015G25KT P6SM FEW035
     FM160400 36010KT P6SM SKC
     FM160600 01005KT P6SM SKC
     FM161300 04009KT P6SM SKC=

Latest METAR

781
SAUS70 KWBC 161300 RRD
MTRGSP
METAR KGSP 161253Z 04008KT 10SM CLR 03/M05 A3031 RMK AO2 SLP268
T00331050


USA.gov is the U.S. government's official web portal to all federal, state and local government web resources and services.